When you browse on this site, cookies collect data to enhance your experience and personalize the content and advertising you see.
Visit our Privacy Policy to learn more. By continuing to use the site, you agree to this use of cookies and data.
  • In Deutschland
  • Länderverzeichnis
  • Für 7 Tage
  • Wassertemperatur
  • Satellitenkarten
  • Wetterkarte
  • Widgets
  • user-avatar
    Anmelden

    Stündliche Wetter Luksor

    Heute, 21 Januar, Montag

    Zeit Temperatur Niederschläge Wind Luftdruck Luftfeuchtigkeit
    00:00 +15°C° 0 mm 1 m/S 754 mmHg 22%
    01:00 +15°C° 0 mm 1 m/S 754 mmHg 23%
    02:00 +13°C° 0 mm 0 m/S 754 mmHg 23%
    03:00 +13°C° 0 mm 0 m/S 754 mmHg 24%
    04:00 +12°C° 0 mm 0 m/S 754 mmHg 24%
    05:00 +12°C° 0 mm 0 m/S 754 mmHg 25%
    06:00 +13°C° 0 mm 0 m/S 754 mmHg 23%
    07:00 +15°C° 0 mm 0 m/S 754 mmHg 21%
    08:00 +16°C° 0 mm 0 m/S 754 mmHg 18%
    09:00 +18°C° 0 mm 0 m/S 754 mmHg 16%
    10:00 +21°C° 0 mm 0 m/S 754 mmHg 13%
    11:00 +23°C° 0 mm 0 m/S 754 mmHg 10%
    12:00 +26°C° 0 mm 1 m/S 754 mmHg 9%
    13:00 +27°C° 0 mm 1 m/S 754 mmHg 8%
    14:00 +28°C° 0 mm 1 m/S 753 mmHg 7%
    15:00 +27°C° 0 mm 1 m/S 753 mmHg 8%
    16:00 +23°C° 0 mm 0 m/S 753 mmHg 8%
    17:00 +22°C° 0 mm 0 m/S 753 mmHg 9%
    18:00 +21°C° 0 mm 0 m/S 753 mmHg 10%
    19:00 +20°C° 0 mm 0 m/S 753 mmHg 11%
    20:00 +18°C° 0 mm 0 m/S 753 mmHg 12%
    21:00 +20°C° 0 mm 1 m/S 753 mmHg 12%
    22:00 +20°C° 0 mm 1 m/S 754 mmHg 12%
    23:00 +19°C° 0 mm 1 m/S 754 mmHg 13%

    Morgen, 22 Januar, Dienstag

    Zeit Temperatur Niederschläge Wind Luftdruck Luftfeuchtigkeit
    00:00 +19°C° 0 mm 1 m/S 753 mmHg 13%
    01:00 +18°C° 0 mm 1 m/S 753 mmHg 14%
    02:00 +18°C° 0 mm 1 m/S 753 mmHg 14%
    03:00 +16°C° 0 mm 1 m/S 753 mmHg 14%
    04:00 +16°C° 0 mm 1 m/S 753 mmHg 15%
    05:00 +15°C° 0 mm 1 m/S 753 mmHg 15%
    06:00 +16°C° 0 mm 1 m/S 753 mmHg 14%
    07:00 +19°C° 0 mm 1 m/S 754 mmHg 13%
    08:00 +20°C° 0 mm 1 m/S 754 mmHg 12%
    09:00 +22°C° 0 mm 1 m/S 754 mmHg 11%
    10:00 +24°C° 0 mm 2 m/S 754 mmHg 10%
    11:00 +26°C° 0 mm 2 m/S 754 mmHg 9%
    12:00 +27°C° 0 mm 3 m/S 754 mmHg 8%
    13:00 +28°C° 0 mm 3 m/S 753 mmHg 8%
    14:00 +28°C° 0 mm 4 m/S 753 mmHg 8%
    15:00 +27°C° 0 mm 4 m/S 753 mmHg 8%
    16:00 +26°C° 0 mm 3 m/S 752 mmHg 8%
    17:00 +25°C° 0 mm 3 m/S 752 mmHg 8%
    18:00 +22°C° 0 mm 3 m/S 753 mmHg 9%
    19:00 +21°C° 0 mm 3 m/S 753 mmHg 10%
    20:00 +19°C° 0 mm 2 m/S 753 mmHg 12%
    21:00 +18°C° 0 mm 2 m/S 753 mmHg 13%
    22:00 +17°C° 0 mm 2 m/S 753 mmHg 15%
    23:00 +16°C° 0 mm 1 m/S 753 mmHg 16%

    übermorgen, 23 Januar, Mittwoch

    Zeit Temperatur Niederschläge Wind Luftdruck Luftfeuchtigkeit
    00:00 +15°C° 0 mm 1 m/S 753 mmHg 18%
    01:00 +14°C° 0 mm 1 m/S 753 mmHg 19%
    02:00 +14°C° 0 mm 1 m/S 753 mmHg 21%
    03:00 +13°C° 0 mm 1 m/S 753 mmHg 22%
    04:00 +13°C° 0 mm 1 m/S 752 mmHg 23%
    05:00 +11°C° 0 mm 0 m/S 752 mmHg 24%
    06:00 +13°C° 0 mm 0 m/S 753 mmHg 23%
    07:00 +14°C° 0 mm 0 m/S 753 mmHg 21%
    08:00 +15°C° 0 mm 0 m/S 753 mmHg 19%
    09:00 +18°C° 0 mm 0 m/S 753 mmHg 16%
    10:00 +20°C° 0 mm 0 m/S 753 mmHg 13%
    11:00 +24°C° 0 mm 1 m/S 753 mmHg 10%
    12:00 +25°C° 0 mm 1 m/S 752 mmHg 9%
    13:00 +27°C° 0 mm 1 m/S 751 mmHg 7%
    14:00 +28°C° 0 mm 1 m/S 750 mmHg 6%
    15:00 +27°C° 0 mm 1 m/S 750 mmHg 7%
    16:00 +26°C° 0 mm 1 m/S 750 mmHg 7%
    17:00 +24°C° 0 mm 1 m/S 750 mmHg 8%
    18:00 +23°C° 0 mm 1 m/S 750 mmHg 9%
    19:00 +22°C° 0 mm 1 m/S 750 mmHg 10%
    20:00 +20°C° 0 mm 1 m/S 751 mmHg 11%
    21:00 +20°C° 0 mm 1 m/S 751 mmHg 11%
    22:00 +20°C° 0 mm 1 m/S 751 mmHg 12%
    23:00 +19°C° 0 mm 1 m/S 751 mmHg 12%

    24 Januar, Donnerstag

    Zeit Temperatur Niederschläge Wind Luftdruck Luftfeuchtigkeit
    00:00 +19°C° 0 mm 1 m/S 750 mmHg 14%
    01:00 +19°C° 0 mm 1 m/S 750 mmHg 17%
    02:00 +17°C° 0 mm 2 m/S 750 mmHg 19%
    03:00 +17°C° 0 mm 2 m/S 750 mmHg 25%
    04:00 +17°C° 0 mm 2 m/S 750 mmHg 31%
    05:00 +17°C° 0 mm 2 m/S 749 mmHg 37%
    06:00 +18°C° 0 mm 2 m/S 750 mmHg 39%
    07:00 +19°C° 0 mm 2 m/S 750 mmHg 41%
    08:00 +20°C° 0 mm 2 m/S 750 mmHg 43%
    09:00 +22°C° 0 mm 3 m/S 750 mmHg 36%
    10:00 +26°C° 0 mm 4 m/S 750 mmHg 29%
    11:00 +29°C° 0 mm 4 m/S 750 mmHg 22%
    12:00 +30°C° 0 mm 5 m/S 750 mmHg 18%
    13:00 +33°C° 0 mm 5 m/S 750 mmHg 14%
    14:00 +35°C° 0 mm 6 m/S 749 mmHg 10%
    15:00 +33°C° 0 mm 6 m/S 749 mmHg 10%
    16:00 +32°C° 0 mm 6 m/S 749 mmHg 10%
    17:00 +29°C° 0 mm 6 m/S 749 mmHg 9%
    18:00 +27°C° 0 mm 4 m/S 750 mmHg 10%
    19:00 +25°C° 0 mm 3 m/S 750 mmHg 11%
    20:00 +23°C° 0 mm 2 m/S 751 mmHg 12%
    21:00 +21°C° 0 mm 2 m/S 751 mmHg 13%
    22:00 +20°C° 0 mm 2 m/S 751 mmHg 13%
    23:00 +19°C° 0 mm 2 m/S 751 mmHg 14%

    25 Januar, Freitag

    Zeit Temperatur Niederschläge Wind Luftdruck Luftfeuchtigkeit
    00:00 +20°C° 0 mm 1 m/S 751 mmHg 14%
    01:00 +19°C° 0 mm 1 m/S 751 mmHg 15%
    02:00 +19°C° 0 mm 1 m/S 751 mmHg 15%
    03:00 +19°C° 0 mm 1 m/S 751 mmHg 16%
    04:00 +18°C° 0 mm 1 m/S 751 mmHg 16%
    05:00 +18°C° 0 mm 1 m/S 751 mmHg 17%
    06:00 +19°C° 0 mm 1 m/S 752 mmHg 17%
    07:00 +20°C° 0 mm 1 m/S 752 mmHg 16%
    08:00 +21°C° 0 mm 1 m/S 753 mmHg 16%
    09:00 +23°C° 0 mm 1 m/S 753 mmHg 14%
    10:00 +25°C° 0 mm 2 m/S 753 mmHg 13%
    11:00 +27°C° 0 mm 2 m/S 753 mmHg 12%
    12:00 +28°C° 0 mm 2 m/S 752 mmHg 11%
    13:00 +29°C° 0 mm 1 m/S 751 mmHg 11%
    14:00 +30°C° 0 mm 1 m/S 751 mmHg 10%
    15:00 +30°C° 0 mm 1 m/S 751 mmHg 11%
    16:00 +29°C° 0 mm 2 m/S 751 mmHg 11%
    17:00 +28°C° 0 mm 2 m/S 751 mmHg 12%
    18:00 +27°C° 0 mm 1 m/S 751 mmHg 13%
    19:00 +25°C° 0 mm 1 m/S 751 mmHg 15%
    20:00 +24°C° 0 mm 1 m/S 751 mmHg 16%
    21:00 +23°C° 0 mm 1 m/S 751 mmHg 16%
    22:00 +23°C° 0 mm 1 m/S 751 mmHg 16%
    23:00 +22°C° 0 mm 1 m/S 751 mmHg 16%

    26 Januar, Samstag

    Zeit Temperatur Niederschläge Wind Luftdruck Luftfeuchtigkeit
    00:00 +22°C° 0 mm 1 m/S 751 mmHg 15%
    01:00 +22°C° 0 mm 1 m/S 750 mmHg 15%
    02:00 +22°C° 0 mm 1 m/S 750 mmHg 14%
    03:00 +22°C° 0 mm 1 m/S 750 mmHg 15%
    04:00 +21°C° 0 mm 1 m/S 750 mmHg 15%
    05:00 +21°C° 0 mm 1 m/S 750 mmHg 16%
    06:00 +22°C° 0 mm 1 m/S 750 mmHg 16%
    07:00 +23°C° 0 mm 1 m/S 750 mmHg 16%
    08:00 +24°C° 0 mm 1 m/S 751 mmHg 16%
    09:00 +25°C° 0 mm 1 m/S 750 mmHg 18%
    10:00 +27°C° 0 mm 1 m/S 750 mmHg 20%
    11:00 +28°C° 0 mm 1 m/S 750 mmHg 22%
    12:00 +29°C° 0 mm 1 m/S 750 mmHg 21%
    13:00 +30°C° 0 mm 1 m/S 749 mmHg 21%
    14:00 +31°C° 0 mm 1 m/S 748 mmHg 20%
    15:00 +30°C° 0 mm 1 m/S 748 mmHg 19%
    16:00 +30°C° 0 mm 1 m/S 748 mmHg 18%
    17:00 +29°C° 0 mm 2 m/S 748 mmHg 17%
    18:00 +28°C° 0 mm 2 m/S 748 mmHg 17%
    19:00 +27°C° 0 mm 2 m/S 749 mmHg 16%
    20:00 +26°C° 0 mm 2 m/S 749 mmHg 16%
    21:00 +25°C° 0 mm 2 m/S 749 mmHg 15%
    22:00 +25°C° 0 mm 2 m/S 749 mmHg 14%
    23:00 +24°C° 0 mm 2 m/S 749 mmHg 14%
    Mehr zeigen